Preview of NWS' New Version of Forecast
This preview is not operational and should not be used for support decisions.

Regional Weather Roundup (RWR)

Issued by National Weather Service (NWS)

                            
000
ASUS42 KTBW 231217
RWRFL 
FLORIDA REGIONAL WEATHER ROUNDUP
NATIONAL WEATHER SERVICE TAMPA BAY RUSKIN FL
800 AM EDT SAT MAR 23 2019

NOTE: "FAIR" INDICATES FEW OR NO CLOUDS BELOW 12,000 FEET WITH NO
SIGNIFICANT WEATHER AND/OR OBSTRUCTIONS TO VISIBILITY.

FLZ001>010-012>015-112-114-115-231300-
PANHANDLE FLORIDA
  
CITY           SKY/WX    TMP DP  RH WIND       PRES   REMARKS
PENSACOLA      FAIR      46  46 100 NW3       30.21R                  
PENSACOLA NAS  FAIR      40  40 100 CALM      30.20R FOG              
MILTON NAS     FAIR      37  36  96 CALM      30.21R                  
CRESTVIEW      FAIR      33  31  92 CALM      30.22R                  
VALPARAISO     FAIR      39  35  86 N6        30.19R WCI  35          
MARY ESTHER    CLEAR     39  36  88 N5        30.19R WCI  36          
PANAMA CITY    FAIR      39  36  89 CALM      30.19R                  
TYNDALL AFB    FAIR      44  40  88 NE3       30.20R                  
APALACHICOLA   FAIR      41  38  89 CALM      30.19R                  

STATION/POSITION SKY/WX   TEMP    WIND        PRES    WAVE   SWELL
                          AIR SEA DIR/SP/G            HT/PER HT/PER
                          (F)     (DEG/KT/KT) (MB)    (FT/S) (FT/S)
30.1N   87.6W                                 1022.9R   1
29.2N   88.2W                      10/  8/ 10 1022.8R   0
PANAMA CITY BEAC           49 65   30/  5/  5 1022.8R
TOWER C                    61      20/ 13/ 14 1022.5R

$$
FLZ011-016>038-118-127-128-134-139-239-231300-
NORTH FLORIDA
  
CITY           SKY/WX    TMP DP  RH WIND       PRES   REMARKS
MARIANNA       FAIR      42  40  92 CALM      30.18R                  
TALLAHASSEE    FAIR      36  33  89 CALM      30.20R                  
PERRY          FAIR      37  36  97 CALM      30.20R FOG              
LIVE OAK       FOG       36  36 100 CALM      30.18R VSB 1            
CROSS CITY     FAIR      37  35  94 CALM      30.19R                  
LAKE CITY      FAIR      37  37 100 CALM      30.18R FOG              
GAINESVILLE    FAIR      44  40  85 CALM      30.20R                  
WILLISTON        N/A    N/A N/A N/A MISG        N/A                   
PALATKA        FOG       37  37 100 CALM      30.18R VSB 1/4          
MAYPORT NAS    FAIR      47  40  76 CALM      30.17R                  
JACKSONVILLE   FAIR      39  37  92 CALM      30.16R                  
JAX NAS        FAIR      50  40  68 W5        30.18R                  
JAX CECIL      CLEAR    N/A N/A N/A CALM      30.17R                  
FERNANDINA BEA FAIR      44  37  77 W5        30.16R WCI  42          
ST AUGUSTINE   FAIR      48  42  80 NW3       30.18R                  
PALM COAST     CLEAR     45  43  93 CALM      30.17R                  

STATION/POSITION SKY/WX   TEMP    WIND        PRES    WAVE   SWELL
                          AIR SEA DIR/SP/G            HT/PER HT/PER
                          (F)     (DEG/KT/KT) (MB)    (FT/S) (FT/S)
SHELL POINT      NOT AVBL
KEATON BEACH               47      30/  4/  6 1022.5R
CEDAR KEY                  56      30/  5/  6 1022.0R
FERNANDINA                 53 62  330/  4/  5 1021.7R
30.7N   81.3W                 62                N/A     2/ 4
MAYPORT                    53 63  260/  2/  3 1021.3R
31.4N   80.9W              59 60  330/ 16/ 17 1020.6R   2/ 4
ST AUGUSTINE               52 62  310/  6/  7 1021.8R

$$
FLZ040-043>046-052-053-057-058-063-144-231300-
INTERIOR CENTRAL FLORIDA
  
CITY           SKY/WX    TMP DP  RH WIND       PRES   REMARKS
OCALA          FOG       38  38 100 CALM      30.19R VSB 1/2          
LEESBURG       FAIR      50  48  93 N6        30.19R                  
SANFORD        FAIR      51  48  89 NW3       30.17R                  
ORLANDO EXEC   FAIR      54  49  83 N3        30.17R                  
ORLANDO INTL   FAIR      51  48  89 N6        30.17R                  
KISSIMMEE      FAIR      46  45  96 CALM      30.18R                  
WINTER HAVEN   FAIR      51  49  92 CALM      30.18R                  
LAKELAND       CLEAR     45  45 100 CALM      30.18R                  
BARTOW         CLEAR     45  43  93 CALM      30.17R                  
SEBRING        FAIR      46  43  91 CALM      30.17R                  
OKEECHOBEE     FAIR      43  43 100 CALM      30.16R                  

$$
FLZ041-047-054-059-064-141-147-231300-
EAST CENTRAL FLORIDA
  
CITY           SKY/WX    TMP DP  RH WIND       PRES   REMARKS
ORMOND BEACH   CLEAR     48  48 100 NW3       30.17R                  
DAYTONA BEACH  FAIR      46  46 100 CALM      30.17R                  
DELAND         FAIR      45  43  93 CALM      30.17R                  
NEW SMYRNA BEA CLEAR     46  45  93 CALM      30.17R                  
JFK SPACE CTR  FAIR      49  46  91 NW3       30.16R                  
TITUSVILLE     CLEAR     45  43  93 CALM      30.17R                  
CAPE CANAVERAL FAIR      50  47  87 NW5       30.15R                  
PATRICK AFB    FAIR      57  53  85 NW5       30.16R                  
MELBOURNE      FAIR      48  44  86 W6        30.16R                  
VERO BEACH     FAIR      49  46  90 CALM      30.16R                  
STUART         CLEAR     55  48  76 NW6       30.17R                  

STATION/POSITION SKY/WX   TEMP    WIND        PRES    WAVE   SWELL
                          AIR SEA DIR/SP/G            HT/PER HT/PER
                          (F)     (DEG/KT/KT) (MB)    (FT/S) (FT/S)
28.5N   80.2W              64     340/ 10/ 12 1021.4
28.9N   78.5W              71 74  330/ 10/ 12 1020.4R   4/ 6   3/ 6
TRIDENT PIER               56 67  320/  3/  5 1022.1R
28.4N   80.5W                 66                N/A     1/11
27.5N   80.2W                 69                N/A     3/10   2/11

$$
FLZ050-056-061-142-242-148-248-149-249-151-251-155-255-
160-260-231300-
WEST CENTRAL FLORIDA
  
CITY           SKY/WX    TMP DP  RH WIND       PRES   REMARKS
CRYSTAL RIVER  FOG       41  41 100 CALM      30.19R VSB<1/4          
INVERNESS      FOG       39  39 100 CALM      30.19R VSB 1/4          
BROOKSVILLE    FOG       39  37  92 CALM      30.19R VSB 1/2          
CLEARWATER AIR FAIR      50  46  87 CALM      30.17R                  
ST PETE CLEARW FAIR      50  48  93 CALM      30.17R                  
TAMPA INTL     FAIR      56  50  80 E3        30.18R                  
TAMPA EXEC     FAIR      43  43 100 CALM      30.19R FOG              
PLANT CITY     FAIR      48  46  93 CALM      30.20R                  
MACDILL AFB    FAIR      47  44  91 E3        30.17R                  
PETER O KNIGHT CLOUDY   N/A N/A N/A CALM      30.18R                  
ST PETERSBURG  FAIR      60  54  80 N5        30.15R                  
SARASOTA       FAIR      48  46  93 CALM      30.15R                  
VENICE         FAIR      52  50  93 NE3       30.18R                  

STATION/POSITION SKY/WX   TEMP    WIND        PRES    WAVE   SWELL
                          AIR SEA DIR/SP/G            HT/PER HT/PER
                          (F)     (DEG/KT/KT) (MB)    (FT/S) (FT/S)
27.3N   84.2W                 72                N/A     2/ 6
CLEARWATER BEACH              67   60/  4/  5 1021.6R
MIDDLE TAMPA BAY           60     100/  6/  7 1021.5R
VENICE                     54 71   50/  6/  6 1021.5R

$$
FLZ066-069-070-075>078-162-262-165-265-231300-
SOUTHWEST FLORIDA AND KEYS
  
CITY           SKY/WX    TMP DP  RH WIND       PRES   REMARKS
PUNTA GORDA    FAIR      47  45  93 CALM      30.19R                  
FT MYERS       FAIR      51  47  86 NE6       30.16R                  
SOUTHWEST INTL FAIR      54  47  77 N3        30.16R                  
NAPLES         FAIR      55  50  83 NE6       30.16R                  
MARCO ISLAND   FAIR      53  49  86 NE5       30.17R                  
IMMOKALEE      FAIR      46  45  93 CALM      30.15R                  
MARATHON       FAIR      67  53  61 N9        30.14R                  
KEY WEST NAS   FAIR      65  56  72 E8        30.14R                  
KEY WEST INTL  FAIR      65  55  70 E3        30.15R                  

STATION/POSITION SKY/WX   TEMP    WIND        PRES    WAVE   SWELL
                          AIR SEA DIR/SP/G            HT/PER HT/PER
                          (F)     (DEG/KT/KT) (MB)    (FT/S) (FT/S)
NAPLES                     57 69   60/  6/  9 1020.9R
26.0N   85.6W              69 79   20/  6/ 12 1021.1
DRY TORTUGAS               69      70/  8/  9 1020.7R
SAND KEY                   68                 1020.5R
SOMBRERO KEY               66                 1020.0R
MOLASSES REEF              65 77   10/ 14/ 16 1020.1R

$$
FLZ067-068-071>074-168-172>174-231300-
SOUTHEAST FLORIDA 
  
CITY           SKY/WX    TMP DP  RH WIND       PRES   REMARKS
W PALM BEACH   FAIR      55  47  74 NW6       30.16R                  
FT LAUDER-EXEC FAIR      57  48  72 N3        30.15R                  
FT LAUDERDALE  FAIR      57  49  74 N5        30.15R                  
POMPANO BEACH  FAIR      57  47  69 N5        30.15R                  
PEMBROKE PINES FAIR      56  49  77 N6        30.17R                  
OPA LOCKA      FAIR      58  50  75 N5        30.16R                  
MIAMI          FAIR      59  49  69 VRB5      30.16R                  
WEST KENDALL   FAIR      58  49  72 N3        30.15R                  
HOMESTEAD      NOT AVBL                                               

STATION/POSITION SKY/WX   TEMP    WIND        PRES    WAVE   SWELL
                          AIR SEA DIR/SP/G            HT/PER HT/PER
                          (F)     (DEG/KT/KT) (MB)    (FT/S) (FT/S)
PORT EVERGLADES            60     330/  5/ 10 1019.8
VIRGINIA KEY                  74  340/  2/  6 1020.2R
LAKE WORTH                 58 74  320/  5/  7 1021.8R
FOWEY ROCKS                66 77  360/ 13/ 14 1021.5R
SETTLEMENT POINT           69     120/  5/  5 1020.6R

$$